Location: Crab Orchard
(37.7292°N, 88.8042°W)
Time: 20:12:13
(UTC+00:00)

ATLAS 3B R/B - Pass Details

Date: 08 December 2019
Orbit: 1027 x 1168 km, 63.8° (Epoch: 19 January)

Event Time Altitude Azimuth Distance (km) Brightness Sun altitude
Rises 22:57:31 0° 327° (NNW) 3,804 5.7 -4.6°
Reaches altitude 10° 23:00:06 10° 326° (NNW) 2,860 5.1 -5.0°
Maximum altitude 23:06:52 83° 240° (WSW) 1,079 2.9 -6.3°
Drops below altitude 10° 23:13:49 10° 153° (SSE) 2,938 5.0 -7.5°
Sets 23:16:31 0° 153° (SSE) 3,913 5.6 -8.0°
